Wind_Speed
49 49 50 51 52 52 52 51 51 51 51 50 50 50 50 50 50 50 50 50 49 49 49 48 48 47 47 47 46 45 44 43 42 41 40 39 37 36 35 34 33 32 31
46 47 47 48 49 49 49 50 50 50 50 50 51 51 51 51 51 51 51 51 50 50 49 49 48 47 47 46 44 43 43 42 40 39 38 36 35 34 33 32 31 31 30
41 43 44 46 47 47 48 49 50 51 51 51 51 51 52 52 52 52 51 51 50 50 49 48 47 46 45 44 43 42 41 40 39 37 36 35 34 33 32 31 30 30 29
38 39 41 42 43 45 46 47 48 49 50 51 51 51 51 51 51 50 50 49 48 48 47 46 45 45 44 43 42 41 39 37 36 35 34 33 32 31 30 30 30 30 29
37 38 39 40 42 43 44 45 46 46 47 47 48 48 48 48 48 47 47 46 46 45 44 44 43 42 41 40 39 38 36 35 34 33 32 32 31 30 30 30 30 30 30
36 37 38 39 40 42 43 44 44 44 45 45 45 45 45 45 45 45 44 44 43 42 42 41 40 39 38 37 35 34 33 32 32 32 31 31 30 30 30 30 30 30 30
36 37 38 38 39 40 41 42 42 42 42 43 42 42 42 42 42 42 42 41 41 40 39 39 38 37 36 34 33 33 32 31 31 31 31 31 31 30 30 30 30 30 31
35 36 37 37 38 39 40 40 40 41 41 41 41 40 40 40 40 40 39 39 38 37 37 36 35 33 33 32 32 31 31 31 31 31 31 31 30 30 31 31 31 32 32
35 36 36 37 37 38 38 38 38 38 38 39 39 39 38 38 37 37 36 35 35 34 33 32 31 31 30 30 30 30 31 31 31 31 31 31 31 31 31 32 32 33 34
35 35 35 35 35 36 36 36 36 36 36 35 35 35 35 35 35 34 33 32 32 31 30 30 30 29 29 29 30 30 31 31 31 31 31 31 32 32 33 34 34 35 36
33 34 34 34 34 33 33 33 32 32 32 32 32 32 32 32 32 31 31 30 30 30 30 30 30 29 29 30 30 30 31 31 32 32 32 33 34 34 35 35 36 37 38
32 32 32 32 32 32 31 31 30 30 30 29 29 29 29 29 29 29 29 29 29 29 29 29 29 29 30 30 31 31 32 32 32 33 34 34 35 35 36 37 38 39 39
31 31 31 31 31 31 30 29 29 28 28 28 28 28 28 29 29 29 28 28 28 28 28 29 29 29 30 31 32 32 33 33 34 34 35 36 37 37 38 38 39 40 40
31 31 31 31 30 30 29 28 28 28 27 27 27 27 28 28 28 28 28 28 29 29 29 30 30 31 32 33 33 33 34 35 35 36 37 37 38 39 39 39 40 40 41
30 30 29 29 29 29 29 29 29 28 27 27 27 27 28 28 28 29 29 29 30 30 31 31 32 32 33 33 34 34 35 36 36 37 38 39 39 39 40 40 41 41 41
30 29 29 28 28 28 28 28 28 28 28 28 28 28 29 29 29 29 30 31 31 31 31 32 33 33 34 35 35 36 36 37 38 38 39 39 40 40 41 41 41 42 42
28 28 28 29 29 29 29 29 29 29 29 29 29 29 30 30 31 31 31 31 31 31 32 33 33 34 35 36 36 37 38 38 39 40 40 41 41 41 41 41 42 42 43
30 30 29 29 29 29 29 29 29 30 30 30 30 31 31 32 32 32 32 32 32 33 33 34 35 36 36 37 37 38 39 39 40 40 40 41 41 41 42 42 42 42 43
31 31 31 31 30 30 31 31 31 31 31 31 31 32 33 33 33 33 33 34 34 34 34 35 36 36 37 38 39 39 39 40 40 41 41 41 42 42 42 43 43 42 42
33 33 33 32 32 32 33 33 33 33 33 34 34 34 35 35 35 35 35 35 35 36 36 37 38 39 39 39 40 40 40 41 41 41 42 42 42 42 42 42 42 42 42
34 33 33 33 33 33 33 34 34 34 34 34 35 35 36 36 36 36 37 37 37 37 38 38 39 39 39 40 40 40 40 41 41 41 42 42 42 41 42 41 42 43 43
34 33 33 33 33 32 33 33 33 33 34 34 35 36 36 36 36 36 36 37 37 37 37 38 38 38 39 39 40 40 40 40 41 41 41 41 41 41 41 42 43 44 44
34 34 34 33 33 33 33 33 33 33 33 34 34 34 35 35 35 36 36 37 37 37 38 38 38 38 39 39 39 39 39 39 39 40 40 40 40 41 42 43 44 45 46
33 33 33 33 33 33 33 33 33 33 33 33 33 33 33 33 34 34 35 35 36 36 36 37 37 37 37 37 38 38 38 38 38 39 40 40 41 42 43 44 45 46 47
33 33 33 33 33 33 33 33 33 33 32 33 33 33 33 33 33 34 34 34 34 34 35 35 35 35 35 36 36 37 37 38 39 39 40 41 42 43 44 45 46 47 48
33 33 33 32 32 33 33 32 32 32 32 32 32 32 32 32 32 33 33 33 33 33 33 33 34 35 35 36 37 37 37 38 39 40 41 42 43 44 45 46 47 48 49
Wind_Direction
255 256 257 259 261 262 263 264 265 266 267 268 269 271 272 274 275 277 278 279 281 282 283 284 285 285 286 287 287 288 289 290 289 290 291 292 293 293 293 293 293 293 293
257 258 259 260 261 263 264 265 266 267 268 269 270 271 272 274 275 277 278 279 280 281 282 282 283 284 284 285 285 286 287 287 288 289 290 290 291 291 291 291 292 292 292
258 259 260 261 263 264 265 266 267 268 269 270 271 272 274 275 277 278 278 279 279 280 280 280 281 281 282 282 283 284 285 286 287 287 288 289 289 290 290 290 291 291 292
261 262 262 263 264 265 267 267 269 269 270 271 272 274 275 276 276 277 277 277 278 278 278 278 278 279 280 281 282 283 284 284 285 286 286 287 288 289 289 290 290 290 291
263 263 263 264 265 266 267 268 270 271 272 272 273 274 274 274 274 275 275 275 275 275 276 276 277 278 279 280 281 282 282 283 283 284 285 286 287 288 289 290 290 291 292
263 264 264 265 266 267 268 268 269 270 271 272 272 273 273 273 274 274 274 275 275 275 275 276 277 278 278 279 280 280 280 281 282 283 284 285 286 287 289 290 291 292 292
265 265 266 267 268 269 269 269 270 270 271 272 272 273 273 274 274 274 273 274 275 275 275 276 276 276 277 277 277 278 279 280 282 283 284 285 286 287 288 289 290 291 292
266 267 267 268 269 270 270 271 271 272 272 272 272 273 274 274 274 274 275 275 274 274 274 274 274 274 275 275 275 277 278 280 282 283 284 285 286 287 288 289 291 292 292
266 267 268 269 270 271 272 272 272 272 272 273 272 272 273 274 274 274 273 272 272 272 272 272 273 274 274 274 275 277 279 281 282 283 285 286 287 288 289 290 291 292 293
267 268 268 269 270 271 272 272 272 273 273 273 273 272 273 274 274 273 271 271 271 271 271 271 271 271 271 273 276 278 280 281 282 284 285 286 287 288 290 291 292 293 293
267 267 267 268 270 271 272 272 272 273 273 272 272 273 274 274 273 272 271 271 271 271 271 270 270 271 273 275 277 279 281 282 283 284 285 287 288 289 290 292 293 294 294
267 267 268 269 269 271 271 271 271 273 273 272 272 273 274 273 273 272 271 271 271 271 271 271 272 274 275 276 278 280 282 282 283 284 286 288 289 290 292 293 294 294 294
267 268 269 269 269 270 270 270 271 272 273 272 272 273 274 273 273 273 273 273 272 272 272 273 274 275 277 278 279 281 283 283 284 285 287 289 290 291 292 294 295 295 295
267 268 269 269 269 269 269 270 272 271 272 271 272 273 274 274 273 273 273 273 273 273 274 275 276 276 278 279 281 282 284 285 286 287 288 290 291 292 292 294 295 296 296
269 269 268 269 269 269 269 270 270 270 271 272 272 273 273 273 274 274 274 274 275 275 276 277 277 277 279 280 282 283 285 286 288 289 290 291 292 293 293 294 295 296 296
268 268 267 267 268 268 269 270 269 270 271 272 272 273 274 274 274 274 275 276 276 276 276 276 277 279 280 282 283 284 286 288 289 290 291 292 293 293 294 295 296 296 296
267 267 267 267 268 269 269 270 270 271 271 272 271 272 274 274 274 274 275 275 276 276 277 278 279 281 282 284 285 286 287 288 289 291 292 293 293 294 295 296 296 297 297
265 266 266 267 268 268 269 270 270 271 271 271 271 273 274 274 274 274 275 276 277 277 278 279 281 282 283 285 286 287 288 289 290 291 292 293 293 294 295 296 296 297 297
265 266 266 266 267 269 270 270 270 271 271 272 272 272 273 273 273 274 275 277 277 278 279 280 282 283 284 285 287 288 289 289 290 291 292 293 293 294 295 296 296 297 298
264 265 266 267 268 269 270 271 271 271 271 272 272 272 273 273 274 275 276 276 277 278 279 280 282 283 284 286 287 288 289 290 290 291 292 293 293 294 295 295 296 297 298
263 264 266 267 269 270 271 272 272 272 271 271 271 272 272 273 274 275 276 277 277 278 279 280 282 283 284 286 287 288 289 289 290 291 292 292 293 294 295 295 296 297 298
263 263 265 267 269 271 272 272 273 273 272 272 271 272 272 273 274 275 276 277 277 278 279 281 282 283 285 286 287 288 289 289 290 291 292 292 293 294 295 296 297 298 299
263 263 264 266 268 269 271 273 273 273 273 273 273 273 274 275 275 276 277 277 278 278 279 281 282 283 285 286 287 288 288 289 290 291 291 292 293 294 295 297 297 298 299
262 263 264 266 267 269 270 271 272 272 273 274 274 274 274 275 277 278 278 279 279 279 280 281 282 284 285 286 287 288 288 289 290 291 291 292 293 295 296 297 299 300 300
263 264 264 265 267 269 270 271 272 272 273 273 274 275 275 276 278 279 280 280 280 280 281 281 282 283 285 286 287 288 289 290 291 291 292 293 294 296 297 298 299 300 301
263 263 264 266 268 268 270 271 272 272 272 273 274 275 276 276 278 279 280 281 281 281 281 282 283 284 285 287 289 290 290 291 292 293 294 295 296 297 298 299 300 301 302
Height
5722 5724 5725 5727 5728 5729 5731 5731 5732 5733 5733 5734 5734 5735 5735 5735 5734 5734 5733 5732 5732 5731 5730 5728 5727 5725 5724 5721 5719 5717 5715 5713 5711 5708 5706 5703 5701 5698 5696 5694 5692 5690 5688
5711 5712 5714 5715 5716 5718 5719 5719 5720 5721 5721 5722 5722 5722 5722 5722 5722 5721 5721 5720 5719 5719 5718 5716 5715 5714 5712 5710 5708 5706 5704 5702 5700 5698 5696 5693 5691 5689 5687 5685 5683 5681 5679
5700 5702 5703 5704 5705 5706 5707 5707 5708 5709 5709 5709 5710 5710 5710 5710 5709 5709 5708 5708 5707 5706 5705 5704 5703 5702 5700 5698 5697 5695 5693 5691 5690 5688 5686 5684 5682 5680 5679 5677 5675 5673 5671
5691 5692 5692 5693 5694 5695 5695 5696 5696 5697 5697 5697 5697 5697 5697 5697 5696 5696 5695 5695 5694 5693 5693 5692 5691 5690 5688 5687 5686 5684 5683 5681 5680 5678 5677 5675 5673 5672 5670 5668 5666 5665 5663
5681 5682 5682 5683 5683 5684 5684 5684 5685 5685 5685 5685 5685 5685 5685 5684 5684 5683 5683 5682 5682 5681 5680 5680 5679 5678 5677 5676 5675 5674 5672 5671 5670 5669 5668 5666 5664 5663 5661 5659 5658 5656 5654
5671 5672 5672 5672 5673 5673 5673 5673 5674 5674 5673 5673 5673 5673 5673 5672 5672 5671 5671 5670 5670 5669 5669 5668 5668 5667 5666 5665 5665 5664 5663 5662 5661 5660 5659 5657 5655 5654 5652 5651 5649 5647 5645
5661 5662 5662 5662 5662 5662 5662 5662 5662 5662 5662 5662 5662 5662 5661 5661 5660 5660 5659 5659 5658 5658 5658 5657 5657 5656 5656 5655 5655 5654 5654 5653 5652 5651 5650 5648 5647 5645 5643 5642 5640 5638 5636
5651 5652 5652 5652 5652 5652 5652 5651 5651 5651 5651 5651 5651 5650 5650 5650 5649 5649 5648 5648 5648 5647 5647 5647 5647 5646 5646 5646 5646 5645 5644 5644 5643 5642 5641 5639 5637 5636 5634 5632 5630 5628 5626
5641 5642 5642 5642 5642 5641 5641 5641 5641 5640 5640 5640 5640 5640 5639 5639 5638 5638 5638 5638 5637 5637 5637 5637 5637 5637 5637 5637 5637 5636 5636 5635 5634 5633 5631 5630 5628 5626 5625 5623 5621 5619 5616
5631 5632 5632 5632 5631 5631 5631 5631 5630 5630 5630 5630 5629 5629 5629 5629 5628 5628 5628 5628 5628 5628 5628 5628 5628 5628 5628 5628 5628 5627 5627 5626 5625 5623 5622 5620 5618 5617 5615 5613 5611 5608 5606
5622 5622 5622 5622 5622 5622 5621 5621 5621 5621 5620 5620 5620 5620 5620 5619 5619 5619 5619 5619 5619 5619 5619 5619 5620 5620 5619 5619 5619 5618 5618 5617 5615 5614 5612 5611 5609 5607 5604 5602 5600 5597 5595
5612 5612 5612 5612 5612 5612 5612 5612 5612 5612 5611 5611 5611 5611 5611 5611 5611 5610 5611 5611 5611 5611 5611 5611 5611 5611 5611 5611 5610 5609 5608 5607 5606 5604 5602 5601 5599 5596 5594 5591 5589 5586 5583
5603 5603 5603 5603 5603 5603 5603 5603 5603 5603 5603 5603 5603 5603 5603 5603 5602 5602 5602 5602 5602 5603 5603 5603 5603 5602 5602 5601 5601 5600 5599 5597 5596 5594 5592 5590 5588 5586 5583 5580 5577 5574 5571
5594 5594 5594 5594 5594 5594 5595 5595 5595 5595 5595 5595 5595 5595 5595 5594 5594 5594 5594 5594 5594 5594 5594 5594 5594 5593 5593 5592 5591 5590 5589 5587 5585 5584 5581 5579 5577 5574 5572 5569 5566 5563 5559
5585 5585 5585 5585 5586 5586 5586 5586 5586 5587 5586 5587 5587 5587 5587 5586 5586 5586 5586 5586 5586 5586 5586 5585 5585 5584 5583 5582 5581 5580 5578 5577 5575 5573 5570 5568 5566 5563 5560 5557 5554 5551 5547
5576 5576 5577 5577 5577 5577 5577 5578 5578 5578 5578 5578 5578 5578 5578 5578 5578 5578 5577 5577 5577 5577 5576 5576 5575 5574 5573 5572 5571 5569 5568 5566 5564 5561 5559 5557 5554 5551 5548 5545 5542 5538 5535
5567 5568 5568 5568 5568 5569 5569 5569 5569 5569 5569 5569 5569 5569 5569 5569 5568 5568 5568 5568 5568 5567 5567 5566 5565 5564 5563 5562 5560 5559 5557 5554 5552 5550 5547 5545 5542 5539 5536 5533 5529 5526 5522
5558 5558 5559 5559 5559 5559 5560 5560 5560 5560 5560 5560 5560 5559 5559 5559 5559 5559 5559 5558 5558 5557 5557 5556 5555 5554 5552 5551 5549 5547 5545 5543 5540 5538 5535 5532 5530 5527 5523 5520 5516 5513 5509
5548 5549 5549 5549 5550 5550 5550 5550 5550 5550 5550 5550 5550 5550 5549 5549 5549 5549 5548 5548 5548 5547 5546 5545 5544 5543 5541 5539 5537 5535 5533 5531 5528 5526 5523 5520 5517 5514 5511 5507 5503 5500 5496
5538 5538 5539 5539 5540 5540 5540 5540 5540 5540 5540 5540 5540 5539 5538 5538 5538 5538 5538 5537 5536 5536 5535 5534 5532 5531 5529 5527 5525 5523 5521 5518 5516 5513 5510 5507 5504 5501 5498 5494 5490 5487 5483
5527 5528 5528 5529 5529 5529 5529 5529 5529 5529 5529 5529 5529 5528 5528 5528 5527 5527 5526 5526 5525 5524 5523 5522 5520 5519 5517 5515 5513 5511 5508 5506 5503 5501 5498 5495 5492 5488 5485 5481 5478 5474 5470
5516 5517 5517 5518 5518 5518 5518 5518 5518 5518 5517 5517 5517 5517 5516 5516 5516 5515 5515 5514 5513 5512 5511 5510 5508 5506 5505 5503 5500 5498 5496 5493 5491 5488 5485 5482 5479 5476 5472 5469 5465 5461 5456
5505 5506 5506 5507 5507 5507 5507 5507 5507 5507 5506 5506 5506 5505 5505 5505 5504 5504 5503 5502 5501 5500 5499 5497 5496 5494 5492 5490 5488 5486 5484 5481 5478 5476 5473 5470 5467 5463 5460 5456 5452 5447 5443
5493 5494 5495 5496 5496 5496 5496 5496 5496 5495 5495 5495 5495 5494 5494 5493 5493 5492 5491 5490 5489 5488 5487 5485 5484 5482 5480 5478 5476 5474 5471 5469 5466 5463 5461 5458 5454 5451 5447 5443 5438 5434 5429
5482 5483 5484 5484 5485 5485 5485 5485 5485 5484 5484 5484 5484 5483 5483 5482 5482 5481 5480 5479 5478 5476 5475 5473 5472 5470 5468 5466 5464 5462 5460 5457 5454 5451 5448 5445 5442 5438 5434 5429 5425 5420 5415
5470 5471 5472 5473 5473 5474 5474 5474 5474 5474 5473 5473 5473 5472 5472 5471 5471 5470 5469 5468 5466 5465 5464 5462 5461 5459 5457 5455 5453 5450 5448 5445 5442 5439 5436 5432 5429 5424 5420 5416 5411 5406 5400